Regional Weather Roundup
Issued by NWS

Home | Current Version | Previous Version | Graphics & Text | Print | Product List | Glossary Off
Versions: 1 2 3 4 5 6 7 8 9 10 11 12 13 14 15 16 17 18 19 20 21 22 23 24 25 26 27 28 29 30 31 32 33 34 35 36 37 38 39 40 41 42 43 44 45 46 47 48 49 50

358
ASUS43 KTOP 301608
RWRKS

WEATHER ROUNDUP FOR KANSAS
NATIONAL WEATHER SERVICE GOODLAND KS
1100 AM CDT FRI SEP 30 2016

NOTE:  "FAIR" INDICATES FEW OR NO CLOUDS BELOW 12,000 FEET WITH NO
SIGNIFICANT WEATHER AND/OR OBSTRUCTIONS TO VISIBILITY.

KSZ001>006-013>018-027>032-041>047-301700-
NORTHWEST KANSAS

CITY           SKY/WX    TMP DP  RH WIND       PRES   REMARKS
GOODLAND       CLOUDY    61  45  55 S21       30.21R
HAYS           SUNNY     64  45  48 S12       30.27F
HILL CITY      SUNNY     63  50  62 S9        30.27F
RUSSELL        SUNNY     63  49  60 E6        30.26
$$

KSZ061>065-074>080-084>089-301700-
SOUTHWEST KANSAS

CITY           SKY/WX    TMP DP  RH WIND       PRES   REMARKS
DODGE CITY     SUNNY     65  47  52 SE14      30.26F
ELKHART          N/A     65  46  50 SE15        N/A
GARDEN CITY    SUNNY     64  46  52 S15       30.23S
GREAT BEND     SUNNY     64  45  48 SE8       30.27F
LIBERAL        SUNNY     66  48  52 S18       30.24F
PRATT          SUNNY     62  46  55 SE6       30.28S
$$

KSZ066>073-081>083-090>101-301700-
SOUTHEAST KANSAS

CITY           SKY/WX    TMP DP  RH WIND       PRES   REMARKS
CHANUTE        SUNNY     67  54  63 VRB3      30.24F
COFFEYVILLE    SUNNY     67  53  61 VRB5      30.25S
HUTCHINSON     SUNNY     65  48  54 VRB3      30.27F
MEDICINE LODGE   N/A     64  49  57 S5        30.27S
NEWTON         SUNNY     66  50  56 CALM      30.27F
PARSONS        SUNNY     69  54  58 NW6       30.25F
WICHITA INTL   MOSUNNY   67  50  54 N3        30.26F
WICHITA JABRA  SUNNY     66  52  60 N3        30.26F
WICHITA MCCONL SUNNY     66  48  52 VRB3      30.26F
WINFIELD       SUNNY     66  53  63 N5        30.27F
$$

KSZ007>012-019>026-033>040-048>060-102>105-301700-
NORTHEAST KANSAS

CITY           SKY/WX    TMP DP  RH WIND       PRES   REMARKS
CONCORDIA      SUNNY     64  51  62 E6        30.29S
EMPORIA        SUNNY     64  54  69 VRB5      30.25F
LAWRENCE       SUNNY     65  56  72 W3        30.25F
MANHATTAN      SUNNY     64  54  69 CALM      30.26F
MARYSVILLE     SUNNY     64  52  63 CALM      30.28F
OLATHE IND     SUNNY     64  55  72 N3        30.25F
OLATHE EXE     SUNNY     66  53  63 NW6       30.24F
SALINA         SUNNY     64  51  62 CALM      30.28F
TOPEKA BILLARD SUNNY     65  54  67 N3        30.26F
TOPEKA FORBES  SUNNY     66  53  63 NW3       30.26S
$$




USA.gov is the U.S. government's official web portal to all federal, state and local government web resources and services.